Weather History for Davenport, IA

Change the Weather History Date:

Friday, February 7, 2014

  Actual Average Record
Temperature  
Mean Temperature 3 °F 24 °F  
Max Temperature 13 °F 32 °F 55 °F (2009)
Min Temperature -7 °F 15 °F -9 °F (2007)
Degree Days  
Heating Degree Days 62 41  
Month to date heating degree days 419 294  
Since 1 July heating degree days 4828 4230  
Cooling Degree Days 0 0  
Month to date cooling degree days 0 0  
Year to date cooling degree days 0 0  
Moisture  
Dew Point -5 °F    
Average Humidity 71    
Maximum Humidity 83    
Minimum Humidity 58    
Precipitation  
Precipitation 0.00 in 0.05 in 0.58 in (2013)
Month to date precipitation 0.35 0.29  
Year to date precipitation 1.11 1.48  
Snow  
Snow 0.00 in - - ()
Month to date snowfall 6.0  
Since 1 July snowfall 34.3  
Snow Depth 6.00 in    
Sea Level Pressure  
Sea Level Pressure 30.41 in    
Wind  
Wind Speed 9 mph (SW)    
Max Wind Speed 16 mph    
Max Gust Speed 18 mph    
Visibility 10 miles    
Events      
T = Trace of Precipitation, MM = Missing Value Source: NWS Daily Summary

Daily Weather History Graph

Daily Weather History Graph

Search for Another Location

Airport:

Trip Planner

Search our weather history database for the weather conditions in past years. The results will help you decide how hot, cold, wet, or windy it might be!

Date:

Astronomy

Feb. 07, 2014 Rise Set
Actual Time 7:07 AM CST 5:25 PM CST
Civil Twilight 6:38 AM CST 5:54 PM CST
Nautical Twilight 6:05 AM CST 6:27 PM CST
Astronomical Twilight 5:33 AM CST 7:00 PM CST
Moon 11:36 AM CST (2/7) 1:24 AM CST (2/7)
Length of Visible Light 11h 16m
Length of Day
10h 18m
First Quarter, 59% of the Moon is Illuminated
Feb 7
First Quarter
Feb 14
Full
Feb 22
Last Quarter
Mar 1
New
Mar 8
First Quarter

Hourly Weather History & Observations

Time (CST) Temp. Windchill Dew Point Humidity Pressure Visibility Wind Dir Wind Speed Gust Speed Precip Events Conditions
12:52 AM -2.9 °F -20.8 °F -9.9 °F 72% 30.46 in 10.0 mi West 11.5 mph - N/A   Clear
1:52 AM -4.0 °F -20.2 °F -11.0 °F 72% 30.45 in 10.0 mi WSW 9.2 mph - N/A   Clear
2:52 AM -4.0 °F -21.2 °F -9.9 °F 76% 30.43 in 10.0 mi West 10.4 mph - N/A   Clear
3:52 AM -6.0 °F -22.6 °F -11.0 °F 79% 30.43 in 10.0 mi WSW 9.2 mph - N/A   Clear
4:52 AM -6.0 °F -24.6 °F -11.9 °F 75% 30.43 in 10.0 mi West 11.5 mph - N/A   Clear
5:52 AM -7.1 °F -23.9 °F -11.9 °F 79% 30.44 in 10.0 mi WSW 9.2 mph - N/A   Clear
6:52 AM -6.0 °F -22.6 °F -11.0 °F 79% 30.45 in 10.0 mi WSW 9.2 mph - N/A   Clear
7:52 AM -7.1 °F -19.9 °F -11.9 °F 79% 30.46 in 10.0 mi WSW 5.8 mph - N/A   Clear
8:52 AM -2.9 °F -19.8 °F -9.0 °F 75% 30.46 in 10.0 mi WSW 10.4 mph - N/A   Clear
9:52 AM 1.9 °F -12.9 °F -6.0 °F 69% 30.47 in 10.0 mi SW 9.2 mph - N/A   Clear
10:52 AM 5.0 °F -10.0 °F -2.9 °F 70% 30.47 in 10.0 mi SW 10.4 mph - N/A   Clear
11:52 AM 9.0 °F -5.9 °F -0.9 °F 64% 30.44 in 10.0 mi WSW 11.5 mph - N/A   Clear
12:52 PM 10.9 °F -3.4 °F -0.9 °F 59% 30.42 in 10.0 mi WSW 11.5 mph - N/A   Clear
1:52 PM 12.0 °F -2.7 °F -0.0 °F 59% 30.41 in 10.0 mi WSW 12.7 mph - N/A   Clear
2:52 PM 12.0 °F -0.4 °F 1.0 °F 61% 30.40 in 10.0 mi SW 9.2 mph - N/A   Clear
3:52 PM 12.0 °F 0.5 °F -0.9 °F 56% 30.38 in 10.0 mi SW 8.1 mph - N/A   Clear
4:52 PM 10.9 °F -2.6 °F -2.0 °F 56% 30.37 in 10.0 mi SW 10.4 mph - N/A   Clear
5:52 PM 10.9 °F 0.2 °F -0.9 °F 59% 30.38 in 10.0 mi SSW 6.9 mph - N/A   Clear
6:52 PM 10.9 °F -0.8 °F 1.0 °F 64% 30.38 in 10.0 mi South 8.1 mph - N/A   Partly Cloudy
7:52 PM 8.1 °F -6.2 °F -2.0 °F 64% 30.37 in 10.0 mi South 10.4 mph - N/A   Partly Cloudy
8:52 PM 7.0 °F -5.7 °F -2.0 °F 67% 30.37 in 10.0 mi South 8.1 mph - N/A   Partly Cloudy
9:52 PM 8.1 °F -4.3 °F -2.0 °F 64% 30.37 in 10.0 mi South 8.1 mph - N/A   Mostly Cloudy
10:52 PM 7.0 °F - -2.9 °F 64% 30.36 in 10.0 mi Calm Calm - N/A   Scattered Clouds
11:52 PM 9.0 °F -2.2 °F -2.0 °F 61% 30.34 in 10.0 mi SSW 6.9 mph - N/A   Overcast